{"data":{"norad_id":55470,"intl_designator":"2023-015X","name":"STARLINK-5708","alt_names":[],"object_type":"PAYLOAD","status":"ACTIVE","operator":null,"country":"US","launch_date":"2023-02-02","launch_site_code":"AFETR","launch_vehicle":null,"mission":null,"orbit_class":"UNKNOWN","rcs_meters":null,"size_class":null,"mass_kg":null,"dimensions":null,"purposes":["comms"],"wikipedia_slug":null,"has_3d_model":false,"image_url":null,"decayed_at":null,"tle_current":{"epoch":"2026-09-20T10:14:16.935360Z","epoch_age_seconds":106752,"freshness":"FRESH","line1":"1 55470U 23015X   26263.42658490 -.00000592  00000+0 -11983-4 0  9992","line2":"2 55470  43.0027 309.0252 0001064 270.2456  89.8274 15.27572944200508","mean_motion":15.27572944,"eccentricity":0.0001064,"inclination_deg":43.0027,"raan_deg":309.0252,"arg_perigee_deg":270.2456,"mean_anomaly_deg":89.8274,"bstar":-1.1983e-5,"rev_number":20050,"period_min":94.267184140439,"perigee_km":482.34019187469,"apogee_km":483.80025677203,"semimajor_km":6861.2072243234,"source":"CELESTRAK","updated_at":"2026-09-21T09:00:33.231874Z"}}}